Flag for U.S.A. Weather past 2 weeks in Bozeman, Montana, U.S.A.

Now
66 °F

Clear.


Feels Like: 66 °F
Forecast: 55 / 89 °F
Wind: 6 mph from Southwest

Location: Gallatin Field

Current Time: Aug 2, 2015 at 10:59:19 PM

Latest Report: Aug 2, 2015 at 9:56 PM


Visibility: 10 mi

Pressure: 29.88 "Hg (25.16 "Hg at 1469m altitude)

Humidity: 45%

Dew point: 44 °F

Location of BozemanLocation

Historic Weather in Bozeman — Graph

°F

Bozeman temperature yesterday

Maximum temperature yesterday: 93 °F (at 3:56 PM)
Minimum temperature yesterday: 47 °F (at 5:56 AM)
Average temperature yesterday: 71 °F

Past Weeks' High & Low Weather Summary

 TemperatureHumidityPressure
High93 °F (Aug 1, 3:56 PM)97% (Jul 23, 2:56 AM)30.29 "Hg (Jul 23, 2:56 AM)
Low41 °F (Jul 29, 4:56 AM)6% (Aug 2, 5:56 PM)29.69 "Hg (Jul 26, 5:56 PM)
Average66 °F55%29.99 "Hg
* Reported Jul 18 8:56 PM — Aug 2 8:56 PM, Bozeman, Weather by CustomWeather, © 2015

Note: Actual official high and low records may vary slightly from our data, if they occured in-between our weather recording intervals... More about our weather records

Advertising

Bozeman weather history for previous 24 hours

 ConditionsComfort  
Time TempWeatherWind HumidityBarometerVisibility
8:56 PM
Sun, Aug 2
70 °FSunny.5 mph42%29.87 "Hg10 mi
7:56 PM81 °FSunny.5 mph21%29.86 "Hg10 mi
6:56 PM86 °FSunny.No wind19%29.87 "Hg10 mi
5:56 PM90 °FSunny.No wind6%29.88 "Hg10 mi
4:56 PM88 °FSunny.6 mph14%29.89 "Hg10 mi
3:56 PM89 °FSunny.7 mph10%29.91 "Hg10 mi
2:56 PM89 °FSunny.5 mph15%29.93 "Hg10 mi
1:56 PM87 °FSunny.5 mph18%29.94 "Hg10 mi
12:56 PM85 °FSunny.No wind20%29.96 "Hg10 mi
11:56 AM82 °FSunny.No wind21%29.97 "Hg10 mi
10:56 AM78 °FSunny.5 mph27%29.99 "Hg10 mi
9:56 AM73 °FSunny.No wind38%29.99 "Hg10 mi
8:56 AM68 °FSunny.3 mph49%29.99 "Hg10 mi
7:56 AM58 °FSunny.7 mph67%29.99 "Hg10 mi
6:56 AM52 °FClear.6 mph72%29.98 "Hg10 mi
5:56 AM50 °FClear.9 mph74%29.96 "Hg10 mi
4:56 AM51 °FClear.9 mph74%29.95 "Hg10 mi
3:56 AM50 °FClear.6 mph80%29.95 "Hg10 mi
2:56 AM55 °FClear.5 mph67%29.93 "Hg10 mi
1:56 AM57 °FClear.12 mph64%29.92 "Hg10 mi
12:56 AM60 °FClear.8 mph58%29.92 "Hg10 mi
11:56 PM
Sat, Aug 1
62 °FClear.5 mph56%29.90 "Hg10 mi
10:56 PM61 °FClear.7 mph65%29.91 "Hg10 mi
Weather by CustomWeather, © 2015

See weather overviewHow to use our weather pages